This is the latest recevied weather packets stored in our database for station/object GBTWP-2. If no packets are shown the sender has not sent any weather packets the latest 1 day(s).
| Time | Temp. | Humidity | Pressure | Rain* | Wind** | Luminosity | Snow |
|---|---|---|---|---|---|---|---|
| 1778045402 | 8.33° C | 60% | 1011.3 hPa | 0 mm | 0 m/s | 0 W/m² | - |
| 1778044502 | 8.33° C | 58% | 1011.4 hPa | 0 mm | 0 m/s | 0 W/m² | - |
| 1778044202 | 8.89° C | 58% | 1011.3 hPa | 0 mm | 0 m/s | 0 W/m² | - |
| 1778043901 | 8.89° C | 59% | 1011.6 hPa | 0 mm | 0 m/s | 0 W/m² | - |
| 1778043602 | 8.33° C | 58% | 1011.5 hPa | 0 mm | 0 m/s | 0 W/m² | - |
| 1778043301 | 8.33° C | 58% | 1011.6 hPa | 0 mm | 0 m/s | 0 W/m² | - |
| 1778041502 | 8.33° C | 60% | 1011.2 hPa | 0 mm | 0 m/s | 0 W/m² | - |
| 1778041201 | 8.33° C | 59% | 1011.3 hPa | 0 mm | 0 m/s | 0 W/m² | - |
| 1778040302 | 8.33° C | 59% | 1011.3 hPa | 0 mm | 0 m/s | 0 W/m² | - |
| 1778040002 | 8.33° C | 64% | 1011.4 hPa | 0 mm | 0 m/s | 0 W/m² | - |
| 1778039402 | 8.33° C | 61% | 1011.5 hPa | 0 mm | 0 m/s | 0 W/m² | - |
| 1778039102 | 8.33° C | 64% | 1011.5 hPa | 0 mm | 0 m/s | 0 W/m² | - |
| 1778038802 | 8.33° C | 62% | 1011.5 hPa | 0 mm | 0 m/s | 0 W/m² | - |
| 1778038502 | 7.78° C | 64% | 1011.3 hPa | 0 mm | 0 m/s | 0 W/m² | - |
| 1778038201 | 7.78° C | 69% | 1011.2 hPa | 0 mm | 0 m/s | 0 W/m² | - |
| 1778037902 | 8.33° C | 65% | 1011.3 hPa | 0 mm | 0 m/s | 0 W/m² | - |
| 1778037601 | 7.78° C | 64% | 1011.4 hPa | 0 mm | 0 m/s | 0 W/m² | - |
| 1778037001 | 7.78° C | 67% | 1011.5 hPa | 0 mm | 0 m/s | 0 W/m² | - |
| 1778036401 | 8.33° C | 67% | 1011.4 hPa | 0 mm | 0 m/s | 0 W/m² | - |
| 1778036102 | 8.33° C | 63% | 1011.3 hPa | 0 mm | 0 m/s | 0 W/m² | - |
| 1778035502 | 8.33° C | 63% | 1011.3 hPa | 0 mm | 0 m/s | 0 W/m² | - |
| 1778035201 | 8.33° C | 65% | 1011.2 hPa | 0 mm | 0 m/s | 0 W/m² | - |
| 1778034902 | 8.33° C | 66% | 1011.3 hPa | 0 mm | 0 m/s | 0 W/m² | - |
| 1778034602 | 8.33° C | 62% | 1011.5 hPa | 0 mm | 0 m/s | 0 W/m² | - |
| 1778034302 | 8.33° C | 63% | 1011.2 hPa | 0 mm | 0 m/s | 0 W/m² | - |
* Rain latest hour (hover to see other rain measurements)
** Current wind speed in m/s (hover to see current wind gust speed)